Torna al catalogo

STARLINK-34465

AttivoComunicazioniVLEO
NORAD 64438·PAYLOAD·🇺🇸 United States

Lanciato Jun 18, 2025 da Cape Canaveral Space Force Station

Loading…

Prossimi Passaggi (prossime 24 ore)

TLE

AggiornatoSource: CelesTrak SupGP

Epoca: Sep 15, 2026, 03:52 UTC

1 64438C 25130A   26258.16159722 -.00009769  00000+0 -28856-3 0  2584
2 64438  53.1575 284.9419 0001221  97.8951 194.9981 15.34404196    14

Traccia STARLINK-34465 in tempo reale con AllMySat

Download on the App Store